CZ-3A DEB, 35547

Orbit data source: Space-Track

CZ-3A DEB, 35547 is space debris in LEO originally from a launch on Fri, 02 Feb 2007 UTC launched from the Xichang Space Center, China (XSC). Debris objects in space refer to the collection of defunct objects orbiting the Earth. Examples of debris include non-operational satellites, rocket bodies, and fragments generated from explosions, collisions, or faulty payload assembly.

Loading next visibility...
Identifier
35547, 2007-003F
Orbit
LEO
Country
Flag of CNCN / PRC
Related business
Manufacturer
Unknown
Mission
Spacecraft
Bus & Motor
Unknown
Mass
Unknown
Launch date (UTC)
2007-02-02 (19 years ago)
Launch vehicle
Unknown
Launch site
Xichang Space Center, China (XSC)
Object type
Payload
Rocket body
Debris
Shape & HBR
Unknown shape, 0.1 m
Radar Cross Section
Medium (>0.1 m² and <1 m²)

Expand to show TLE details & history
Last TLE update: 6 hours ago

TLE from 6 hours ago
0 CZ-3A DEB
1 35547U 07003F   26036.30387079  .01433800  23477-3  15065-1 0  9991
2 35547  24.4938 105.9135 1047465 347.2201  10.3558 13.63135907 34362
Epoch: 2026-02-05T07:17Z
TLE epoch observation values (Epoch: 2026-02-05T07:17:34.436Z)
Latitude
Longitude
-138.938°
Altitude
262.921 km
Speed
8.139 km/s
True Right ascension
07h 03m 39s
True Declination
0° 00' 00"
Sunlit
Object was in full shadow at epoch
Visualization orbit readout
Latitude
Unknown
Longitude
Unknown
Altitude
Unknown
Speed
Unknown
Apparent Right ascension
Unknown
Apparent Declination
Unknown
Sunlit
N/A
Visualization observer readout
Local Sidereal Time
15:17:56
Azimuth
Unknown
Elevation
Unknown
Doppler factor
Unknown
Orbital elements
Apogee altitude
1,804.665 km
Perigee altitude
252.961 km
Semi-major axis
7,406.95 km
Eccentricity
0.10475
Inclination
24.4938°
RAAN
105.9135°
Arg. of periapsis
347.2201°
True anomaly
12.82946°
Mean anomaly
10.3558°
Eccentric anomaly
11.5583°
Mean motion
3.40474 °/min
Orbital period
105.73 mins
BSTAR
0.015065
Loading maneuver chart data...
Computing Atmospheric mass density...
Loading historical data...
Loading historical data...
Loading historical data...
Loading historical data...
Loading historical data...
Loading historical data...
Loading historical data...

Documentation

Showing up to 5 results
|